This demonstration page uses our WeatherBlox Daily Observations layout. Learn more.

Left ArrowRight Arrow

Hourly Observations for March 21, 2017

Temp ( °F °C ) Dew Point ( °F °C ) Humidity (%) Winds ( mph kmh ) Pressure ( in mb ) Visibility ( mi km ) Precip ( " mm )
12:52 am 00:52 Clear 66 18.9 54 12.2 65 65 NE 10 17 29.96 1015 10 16 0.00 0.00
1:52 am 01:52 Clear 65 18.3 51 10.6 61 61 ENE 9 15 29.98 1015 10 16 0.00 0.00
2:52 am 02:52 Clear 62 16.7 51 10.6 67 67 ENE 6 9 29.98 1015 10 16 0.00 0.00
3:52 am 03:52 Clear 60 15.6 50 10 70 70 NE 8 13 29.98 1015 10 16 0.00 0.00
4:52 am 04:52 Clear 58 14.4 48 8.9 70 70 ENE 5 7 29.97 1015 10 16 0.00 0.00
5:52 am 05:52 Clear 57 13.9 47 8.3 69 69 NE 8 13 29.99 1016 10 16 0.00 0.00
6:52 am 06:52 Clear 56 13.3 47 8.3 72 72 NE 12 19 30.01 1016 10 16 0.00 0.00
7:49 am 07:49 Mostly Cloudy with Thunderstorms 55 13 46 8 72 72 NE 12 19 30.09 1019 10 16 0.00 0.00
7:50 am 07:50 Mostly Cloudy with Thunderstorms 56 13.3 47 8.3 72 72 NNE 13 20 30.06 1018 10 16 0.00 0.00
8:07 am 08:07 Cloudy with Strong Thunderstorms 54 12.2 48 8.9 80 80 ENE 14 22 30.06 1018 3 5 0.03 0.76
8:16 am 08:16 Cloudy with Rain 54 12 48 9 82 82 E 21 33 30.06 1018 3 5 0.00 0.00
8:23 am 08:23 Cloudy with Thunderstorms 53 11.7 49 9.4 86 86 E 9 15 30.09 1019 4 6 0.25 6.35
8:52 am 08:52 Windy with Storms Likely 53 11.7 50 10 89 89 E 20 31 30.04 1017 4 6 0.35 8.89
9:01 am 09:01 Cloudy with Nearby Thunderstorms 54 12.2 50 10 87 87 ESE 16 26 30.03 1017 8 13 0.00 0.03
9:16 am 09:16 Cloudy with Thunderstorms 54 12.2 50 10 87 87 ESE 10 17 30.03 1017 8 13 0.00 0.03
9:38 am 09:38 Cloudy with Strong Thunderstorms 54 12 52 11 94 94 ENE 12 19 30.09 1019 2 3 0.00 0.00
9:50 am 09:50 Cloudy with Thunderstorms 54 12 52 11 94 94 NNE 10 17 30.09 1019 3 5 0.00 0.00
9:52 am 09:52 Cloudy with Thunderstorms 53 11.7 51 10.6 93 93 NNE 12 19 30.08 1019 4 6 0.22 5.59
10:11 am 10:11 Mostly Cloudy with Thunderstorms 53 11.7 51 10.6 93 93 N 16 26 30.06 1018 5 8 0.00 0.03
10:16 am 10:16 Mostly Cloudy with Mist and Fog 52 11 50 10 94 94 NNE 15 24 30.12 1020 5 8 0.00 0.00
10:52 am 10:52 Partly Cloudy with Mist and Fog 54 12.2 50 10 87 87 ENE 14 22 30.06 1018 6 10 0.00 0.03
11:52 am 11:52 Mostly Cloudy 57 13.9 50 10 78 78 NE 16 26 30.09 1019 9 14 0.00 0.00
12:52 pm 12:52 Mostly Cloudy 60 15.6 48 8.9 65 65 ENE 18 30 30.09 1019 10 16 0.00 0.00
1:10 pm 13:10 Cloudy 61 16 48 9 63 63 ENE 14 22 30.12 1020 10 16 0.00 0.00
1:52 pm 13:52 Cloudy 59 15 47 8.3 64 64 NE 23 37 30.10 1019 10 16 0.00 0.00
2:52 pm 14:52 Cloudy 56 13.3 45 7.2 67 67 NE 23 37 30.11 1020 10 16 0.00 0.00
3:52 pm 15:52 Cloudy 55 12.8 44 6.7 67 67 NE 21 33 30.11 1020 9 14 0.00 0.00
4:52 pm 16:52 Cloudy 54 12.2 42 5.6 64 64 NE 20 31 30.12 1020 10 16 0.00 0.00
5:52 pm 17:52 Cloudy 54 12.2 40 4.4 59 59 ENE 20 31 30.13 1020 10 16 0.00 0.00
6:52 pm 18:52 Cloudy 53 11.7 40 4.4 61 61 ENE 13 20 30.14 1021 10 16 0.00 0.00
7:52 pm 19:52 Cloudy 54 12.2 40 4.4 59 59 NE 13 20 30.17 1022 10 16 0.00 0.00
8:52 pm 20:52 Cloudy 52 11.1 42 5.6 69 69 E 10 17 30.18 1022 10 16 0.00 0.03
9:52 pm 21:52 Cloudy 53 11.7 41 5 64 64 ENE 10 17 30.20 1023 10 16 0.00 0.00
10:52 pm 22:52 Cloudy 53 11.7 41 5 64 64 E 8 13 30.21 1023 10 16 0.00 0.00
11:52 pm 23:52 Cloudy 52 11.1 43 6.1 72 72 NNE 3 6 30.23 1024 10 16 0.00 0.00

Powered by AerisWeather